This is the latest recevied weather packets stored in our database for station/object W7TJC. If no packets are shown the sender has not sent any weather packets the latest 10 day(s).
| Time | Temp. | Humidity | Pressure | Rain* | Wind** | Luminosity | Snow |
|---|---|---|---|---|---|---|---|
| 1777621593 | 13.33° C | 78% | 1017.5 hPa | 0 mm | - | 0 W/m² | - |
| 1777621290 | 13.89° C | 77% | 1017.6 hPa | 0 mm | - | 0 W/m² | - |
| 1777620986 | 13.89° C | 74% | 1017.6 hPa | 0 mm | - | 0 W/m² | - |
| 1777620681 | 13.89° C | 75% | 1017.4 hPa | 0 mm | - | 0 W/m² | - |
| 1777620378 | 13.89° C | 73% | 1017.5 hPa | 0 mm | - | 0 W/m² | - |
| 1777620076 | 13.89° C | 73% | 1017.7 hPa | 0 mm | - | 0 W/m² | - |
| 1777619771 | 13.89° C | 73% | 1017.7 hPa | 0 mm | - | 0 W/m² | - |
| 1777619467 | 13.89° C | 74% | 1017.6 hPa | 0 mm | - | 0 W/m² | - |
| 1777619162 | 13.89° C | 75% | 1017.6 hPa | 0 mm | - | 0 W/m² | - |
| 1777618857 | 13.33° C | 76% | 1017.6 hPa | 0 mm | - | 0 W/m² | - |
| 1777618556 | 13.33° C | 76% | 1017.6 hPa | 0 mm | - | 0 W/m² | - |
| 1777618253 | 13.89° C | 76% | 1017.5 hPa | 0 mm | - | 0 W/m² | - |
| 1777617950 | 13.89° C | 75% | 1017.5 hPa | 0 mm | - | 0 W/m² | - |
| 1777617646 | 14.44° C | 72% | 1017.5 hPa | 0 mm | - | 0 W/m² | - |
| 1777617341 | 14.44° C | 72% | 1017.3 hPa | 0 mm | - | 0 W/m² | - |
| 1777617040 | 13.89° C | 75% | 1017.6 hPa | 0 mm | - | 0 W/m² | - |
| 1777616739 | 13.89° C | 76% | 1017.5 hPa | 0 mm | - | 0 W/m² | - |
| 1777616434 | 13.89° C | 76% | 1017.5 hPa | 0 mm | - | 0 W/m² | - |
| 1777616131 | 13.89° C | 75% | 1017.5 hPa | 0 mm | - | 0 W/m² | - |
| 1777615828 | 14.44° C | 74% | 1017.5 hPa | 0 mm | - | 0 W/m² | - |
| 1777615525 | 14.44° C | 73% | 1017.5 hPa | 0 mm | - | 0 W/m² | - |
| 1777615221 | 15° C | 73% | 1017.6 hPa | 0 mm | - | 0 W/m² | - |
| 1777614915 | 15.56° C | 69% | 1017.5 hPa | 0 mm | - | 0 W/m² | - |
| 1777614612 | 15.56° C | 68% | 1017.3 hPa | 0 mm | - | 0 W/m² | - |
| 1777614308 | 15.56° C | 67% | 1017.7 hPa | 0 mm | - | 0 W/m² | - |
* Rain latest hour (hover to see other rain measurements)
** Current wind speed in m/s (hover to see current wind gust speed)